TimeEST,TemperatureF,Dew PointF,Humidity,Sea Level PressureIn,VisibilityMPH,Wind Direction,Wind SpeedMPH,Gust SpeedMPH,PrecipitationIn,Events,Conditions,WindDirDegrees,DateUTC
12:15 AM,55.4,51.8,88,30.25,6.0,South,3.5,-,N/A,,Mostly Cloudy,190,2012-12-04 05:15:00
12:35 AM,53.6,50.0,88,30.25,5.0,Calm,Calm,-,N/A,,Scattered Clouds,0,2012-12-04 05:35:00
12:55 AM,53.6,51.8,94,30.25,7.0,Calm,Calm,-,N/A,,Mostly Cloudy,0,2012-12-04 05:55:00
1:15 AM,55.4,51.8,88,30.24,8.0,SSW,3.5,-,N/A,,Mostly Cloudy,200,2012-12-04 06:15:00
1:35 AM,55.4,51.8,88,30.25,10.0,Calm,Calm,-,N/A,,Mostly Cloudy,0,2012-12-04 06:35:00
1:55 AM,57.2,51.8,82,30.25,10.0,Calm,Calm,-,N/A,,Mostly Cloudy,0,2012-12-04 06:55:00
2:15 AM,55.4,51.8,88,30.25,10.0,Calm,Calm,-,N/A,,Overcast,0,2012-12-04 07:15:00
2:35 AM,55.4,51.8,88,30.25,10.0,Calm,Calm,-,N/A,,Overcast,0,2012-12-04 07:35:00
2:55 AM,55.4,51.8,88,30.25,8.0,Calm,Calm,-,N/A,,Mostly Cloudy,0,2012-12-04 07:55:00
3:15 AM,55.4,51.8,88,30.25,7.0,Calm,Calm,-,N/A,,Mostly Cloudy,0,2012-12-04 08:15:00
3:35 AM,53.6,51.8,94,30.24,7.0,Calm,Calm,-,N/A,,Overcast,0,2012-12-04 08:35:00
3:55 AM,53.6,51.8,94,30.24,5.0,SE,3.5,-,N/A,,Mostly Cloudy,140,2012-12-04 08:55:00
4:15 AM,53.6,51.8,94,30.24,5.0,Calm,Calm,-,N/A,,Mostly Cloudy,0,2012-12-04 09:15:00
4:35 AM,53.6,51.8,94,30.24,5.0,Calm,Calm,-,N/A,,Mostly Cloudy,0,2012-12-04 09:35:00
4:55 AM,53.6,51.8,94,30.24,5.0,Calm,Calm,-,N/A,,Mostly Cloudy,0,2012-12-04 09:55:00
5:15 AM,53.6,51.8,94,30.24,5.0,Calm,Calm,-,N/A,,Mostly Cloudy,0,2012-12-04 10:15:00
5:35 AM,53.6,51.8,94,30.24,4.0,Calm,Calm,-,N/A,,Scattered Clouds,0,2012-12-04 10:35:00
5:55 AM,53.6,51.8,94,30.24,4.0,Calm,Calm,-,N/A,,Mostly Cloudy,0,2012-12-04 10:55:00
6:15 AM,51.8,51.8,100,30.25,3.0,Calm,Calm,-,N/A,,Mostly Cloudy,0,2012-12-04 11:15:00
6:35 AM,51.8,51.8,100,30.25,3.0,SE,3.5,-,N/A,,Partly Cloudy,140,2012-12-04 11:35:00
6:55 AM,51.8,50.0,94,30.25,2.5,SE,3.5,-,N/A,,Clear,140,2012-12-04 11:55:00
7:15 AM,50.0,50.0,100,30.25,1.8,Calm,Calm,-,N/A,,Mostly Cloudy,0,2012-12-04 12:15:00
7:35 AM,51.8,50.0,94,30.25,1.5,South,3.5,-,N/A,,Mostly Cloudy,170,2012-12-04 12:35:00
7:55 AM,51.8,50.0,94,30.25,2.0,Calm,Calm,-,N/A,,Mostly Cloudy,0,2012-12-04 12:55:00
8:15 AM,51.8,50.0,94,30.25,1.8,Calm,Calm,-,N/A,,Mostly Cloudy,0,2012-12-04 13:15:00
8:35 AM,51.8,50.0,94,30.26,2.0,Calm,Calm,-,N/A,,Mostly Cloudy,0,2012-12-04 13:35:00
8:55 AM,51.8,51.8,100,30.25,2.5,SSE,3.5,-,N/A,,Scattered Clouds,150,2012-12-04 13:55:00
9:15 AM,51.8,51.8,100,30.26,3.0,South,3.5,-,N/A,,Mostly Cloudy,170,2012-12-04 14:15:00
9:55 AM,53.6,51.8,94,30.26,3.0,SSE,3.5,-,N/A,,Partly Cloudy,150,2012-12-04 14:55:00
10:15 AM,55.4,51.8,88,30.25,5.0,SSE,5.8,-,N/A,,Clear,160,2012-12-04 15:15:00
10:35 AM,57.2,51.8,82,30.25,5.0,Calm,Calm,-,N/A,,Haze,0,2012-12-04 15:35:00
10:55 AM,57.2,51.8,82,30.24,6.0,SSE,4.6,-,N/A,,Haze,160,2012-12-04 15:55:00
11:15 AM,59.0,53.6,82,30.23,7.0,SSE,3.5,-,N/A,,Clear,150,2012-12-04 16:15:00
11:35 AM,60.8,53.6,77,30.22,7.0,SSE,3.5,-,N/A,,Clear,160,2012-12-04 16:35:00
11:55 AM,60.8,53.6,77,30.20,8.0,SE,4.6,-,N/A,,Clear,140,2012-12-04 16:55:00
12:15 PM,62.6,53.6,72,30.20,9.0,South,4.6,-,N/A,,Scattered Clouds,170,2012-12-04 17:15:00
12:35 PM,62.6,53.6,72,30.19,8.0,SSE,4.6,-,N/A,,Scattered Clouds,160,2012-12-04 17:35:00
12:55 PM,64.4,53.6,68,30.18,9.0,South,5.8,-,N/A,,Scattered Clouds,170,2012-12-04 17:55:00
1:15 PM,64.4,53.6,68,30.17,9.0,South,3.5,-,N/A,,Mostly Cloudy,170,2012-12-04 18:15:00
1:35 PM,64.4,53.6,68,30.16,9.0,South,3.5,-,N/A,,Partly Cloudy,180,2012-12-04 18:35:00
1:55 PM,66.2,53.6,64,30.15,10.0,SSE,4.6,-,N/A,,Clear,150,2012-12-04 18:55:00
2:15 PM,66.2,53.6,64,30.14,10.0,South,5.8,-,N/A,,Clear,170,2012-12-04 19:15:00
2:35 PM,64.4,53.6,68,30.14,10.0,SSE,6.9,-,N/A,,Clear,160,2012-12-04 19:35:00
2:55 PM,64.4,53.6,68,30.13,10.0,SSE,4.6,-,N/A,,Clear,160,2012-12-04 19:55:00
3:15 PM,64.4,53.6,68,30.13,10.0,South,3.5,-,N/A,,Clear,180,2012-12-04 20:15:00
3:35 PM,64.4,53.6,68,30.13,10.0,South,6.9,-,N/A,,Clear,180,2012-12-04 20:35:00
3:55 PM,62.6,53.6,72,30.13,10.0,South,5.8,-,N/A,,Clear,190,2012-12-04 20:55:00
4:15 PM,62.6,53.6,72,30.12,10.0,South,5.8,-,N/A,,Clear,180,2012-12-04 21:15:00
4:35 PM,62.6,53.6,72,30.12,10.0,South,5.8,-,N/A,,Clear,180,2012-12-04 21:35:00
4:55 PM,60.8,53.6,77,30.12,10.0,SSE,3.5,-,N/A,,Clear,150,2012-12-04 21:55:00
5:15 PM,60.8,53.6,77,30.11,10.0,SSE,5.8,-,N/A,,Clear,150,2012-12-04 22:15:00
5:35 PM,60.8,53.6,77,30.10,10.0,SSE,3.5,-,N/A,,Clear,160,2012-12-04 22:35:00
5:55 PM,59.0,53.6,82,30.11,10.0,Calm,Calm,-,N/A,,Clear,0,2012-12-04 22:55:00
6:15 PM,57.2,53.6,88,30.10,9.0,SSE,3.5,-,N/A,,Clear,150,2012-12-04 23:15:00
6:35 PM,57.2,53.6,88,30.11,9.0,Calm,Calm,-,N/A,,Clear,0,2012-12-04 23:35:00
6:55 PM,55.4,53.6,94,30.10,7.0,Calm,Calm,-,N/A,,Clear,0,2012-12-04 23:55:00
7:15 PM,53.6,51.8,94,30.09,6.0,Calm,Calm,-,N/A,,Clear,0,2012-12-05 00:15:00
7:35 PM,55.4,51.8,88,30.08,7.0,South,3.5,-,N/A,,Clear,170,2012-12-05 00:35:00
7:55 PM,57.2,51.8,82,30.07,9.0,South,3.5,-,N/A,,Scattered Clouds,180,2012-12-05 00:55:00
8:15 PM,57.2,51.8,82,30.07,10.0,South,3.5,-,N/A,,Mostly Cloudy,190,2012-12-05 01:15:00
8:55 PM,57.2,51.8,82,30.06,10.0,South,4.6,-,N/A,,Mostly Cloudy,190,2012-12-05 01:55:00
9:15 PM,57.2,51.8,82,30.06,10.0,SSW,3.5,-,N/A,,Mostly Cloudy,200,2012-12-05 02:15:00
9:35 PM,57.2,51.8,82,30.05,10.0,South,6.9,-,N/A,,Overcast,190,2012-12-05 02:35:00
9:55 PM,57.2,51.8,82,30.04,10.0,SSW,3.5,-,N/A,,Overcast,210,2012-12-05 02:55:00
10:15 PM,59.0,51.8,77,30.04,10.0,SSW,3.5,-,N/A,,Overcast,200,2012-12-05 03:15:00
10:35 PM,59.0,51.8,77,30.03,10.0,South,4.6,-,N/A,,Mostly Cloudy,190,2012-12-05 03:35:00
10:55 PM,57.2,51.8,82,30.02,10.0,South,4.6,-,N/A,,Mostly Cloudy,190,2012-12-05 03:55:00
11:15 PM,59.0,51.8,77,30.01,10.0,SSW,3.5,-,N/A,,Scattered Clouds,200,2012-12-05 04:15:00
11:35 PM,59.0,51.8,77,30.01,10.0,South,3.5,-,N/A,,Scattered Clouds,190,2012-12-05 04:35:00
11:55 PM,57.2,51.8,82,30.00,10.0,Calm,Calm,-,N/A,,Scattered Clouds,0,2012-12-05 04:55:00